When you browse on this site, cookies collect data to enhance your experience and personalize the content and advertising you see.
Visit our Privacy Policy to learn more. By continuing to use the site, you agree to this use of cookies and data.
  • In Germany
  • List of Countries
  • For 7 days
  • Water Temperature
  • Weather Map
  • Weather Widgets
  • user-avatar
    Login

    Hourly Weather Stepanakert

    Today, 1 June, Monday

    Time Temperature Precipitation Wind Pressure Humidity
    00:00 +18°C° 0 mm 1 mps 691 mmHg 79%
    01:00 +18°C° 0 mm 1 mps 691 mmHg 80%
    02:00 +18°C° 0 mm 1 mps 691 mmHg 81%
    03:00 +16°C° 0 mm 1 mps 691 mmHg 82%
    04:00 +18°C° 0 mm 1 mps 691 mmHg 80%
    05:00 +19°C° 0 mm 1 mps 691 mmHg 78%
    06:00 +19°C° 0 mm 1 mps 691 mmHg 76%
    07:00 +21°C° 0 mm 1 mps 691 mmHg 72%
    08:00 +22°C° 0 mm 1 mps 692 mmHg 67%
    09:00 +24°C° 0 mm 2 mps 692 mmHg 62%
    10:00 +24°C° 0 mm 2 mps 692 mmHg 60%
    11:00 +25°C° 0 mm 2 mps 692 mmHg 58%
    12:00 +26°C° 0 mm 2 mps 691 mmHg 56%
    13:00 +26°C° 0 mm 2 mps 691 mmHg 55%
    14:00 +27°C° 0 mm 2 mps 690 mmHg 54%
    15:00 +27°C° 0 mm 2 mps 690 mmHg 53%
    16:00 +27°C° 0 mm 2 mps 689 mmHg 57%
    17:00 +26°C° 0 mm 1 mps 689 mmHg 61%
    18:00 +25°C° 0 mm 1 mps 689 mmHg 65%
    19:00 +24°C° 0 mm 1 mps 689 mmHg 68%
    20:00 +22°C° 0 mm 1 mps 689 mmHg 71%
    21:00 +21°C° 0 mm 1 mps 689 mmHg 75%
    22:00 +21°C° 0 mm 1 mps 689 mmHg 73%
    23:00 +19°C° 0 mm 2 mps 689 mmHg 70%

    Tomorrow, 2 June, Tuesday

    Time Temperature Precipitation Wind Pressure Humidity
    00:00 +19°C° 0 mm 2 mps 689 mmHg 68%
    01:00 +19°C° 0 mm 2 mps 688 mmHg 66%
    02:00 +19°C° 0 mm 2 mps 688 mmHg 63%
    03:00 +19°C° 0 mm 2 mps 688 mmHg 61%
    04:00 +19°C° 0 mm 2 mps 688 mmHg 60%
    05:00 +20°C° 0 mm 2 mps 689 mmHg 59%
    06:00 +21°C° 0 mm 2 mps 689 mmHg 57%
    07:00 +24°C° 0 mm 1 mps 689 mmHg 52%
    08:00 +26°C° 0 mm 1 mps 689 mmHg 47%
    09:00 +28°C° 0 mm 1 mps 689 mmHg 42%
    10:00 +29°C° 0 mm 2 mps 689 mmHg 40%
    11:00 +30°C° 0 mm 2 mps 689 mmHg 39%
    12:00 +31°C° 0 mm 3 mps 689 mmHg 37%
    13:00 +31°C° 0 mm 3 mps 688 mmHg 38%
    14:00 +31°C° 0 mm 3 mps 688 mmHg 39%
    15:00 +31°C° 0 mm 3 mps 687 mmHg 39%
    16:00 +30°C° 0.2 mm 3 mps 687 mmHg 47%
    17:00 +28°C° 0.2 mm 3 mps 687 mmHg 55%
    18:00 +26°C° 0.2 mm 3 mps 687 mmHg 63%
    19:00 +25°C° 0.1 mm 3 mps 687 mmHg 65%
    20:00 +23°C° 0.1 mm 2 mps 687 mmHg 68%
    21:00 +21°C° 0.1 mm 1 mps 687 mmHg 71%
    22:00 +20°C° 0 mm 2 mps 686 mmHg 70%
    23:00 +20°C° 0 mm 2 mps 686 mmHg 70%

    Day after tomorrow, 3 June, Wednesday

    Time Temperature Precipitation Wind Pressure Humidity
    00:00 +20°C° 0 mm 2 mps 686 mmHg 69%
    01:00 +19°C° 0 mm 2 mps 686 mmHg 70%
    02:00 +19°C° 0 mm 2 mps 686 mmHg 70%
    03:00 +20°C° 0 mm 1 mps 686 mmHg 71%
    04:00 +19°C° 0 mm 2 mps 686 mmHg 69%
    05:00 +20°C° 0 mm 2 mps 687 mmHg 67%
    06:00 +21°C° 0 mm 2 mps 687 mmHg 65%
    07:00 +24°C° 0 mm 2 mps 687 mmHg 58%
    08:00 +26°C° 0 mm 2 mps 687 mmHg 51%
    09:00 +28°C° 0 mm 1 mps 688 mmHg 44%
    10:00 +29°C° 0 mm 2 mps 688 mmHg 41%
    11:00 +30°C° 0 mm 2 mps 688 mmHg 38%
    12:00 +31°C° 0 mm 3 mps 688 mmHg 34%
    13:00 +31°C° 0 mm 3 mps 688 mmHg 36%
    14:00 +31°C° 0 mm 3 mps 687 mmHg 38%
    15:00 +31°C° 0 mm 3 mps 687 mmHg 40%
    16:00 +29°C° 0.3 mm 2 mps 687 mmHg 47%
    17:00 +27°C° 0.3 mm 2 mps 687 mmHg 54%
    18:00 +25°C° 0.3 mm 2 mps 687 mmHg 61%
    19:00 +24°C° 0.1 mm 2 mps 687 mmHg 60%
    20:00 +23°C° 0.1 mm 2 mps 687 mmHg 59%
    21:00 +21°C° 0.1 mm 2 mps 687 mmHg 58%
    22:00 +20°C° 0 mm 2 mps 688 mmHg 57%
    23:00 +20°C° 0 mm 2 mps 688 mmHg 57%

    4 June, Thursday

    Time Temperature Precipitation Wind Pressure Humidity
    00:00 +20°C° 0 mm 2 mps 688 mmHg 56%
    01:00 +19°C° 0 mm 2 mps 688 mmHg 56%
    02:00 +19°C° 0 mm 2 mps 689 mmHg 57%
    03:00 +18°C° 0 mm 2 mps 689 mmHg 57%
    04:00 +19°C° 0 mm 2 mps 689 mmHg 58%
    05:00 +21°C° 0 mm 1 mps 690 mmHg 59%
    06:00 +21°C° 0 mm 1 mps 690 mmHg 60%
    07:00 +23°C° 0 mm 2 mps 690 mmHg 56%
    08:00 +25°C° 0 mm 2 mps 691 mmHg 52%
    09:00 +26°C° 0 mm 2 mps 691 mmHg 48%
    10:00 +27°C° 0 mm 2 mps 691 mmHg 47%
    11:00 +28°C° 0 mm 3 mps 691 mmHg 45%
    12:00 +29°C° 0 mm 4 mps 691 mmHg 43%
    13:00 +29°C° 0 mm 3 mps 691 mmHg 43%
    14:00 +29°C° 0 mm 3 mps 690 mmHg 43%
    15:00 +29°C° 0 mm 3 mps 690 mmHg 42%
    16:00 +28°C° 0 mm 3 mps 690 mmHg 50%
    17:00 +26°C° 0 mm 2 mps 690 mmHg 57%
    18:00 +25°C° 0 mm 2 mps 690 mmHg 65%
    19:00 +24°C° 0 mm 2 mps 690 mmHg 70%
    20:00 +21°C° 0 mm 2 mps 690 mmHg 75%
    21:00 +20°C° 0 mm 1 mps 690 mmHg 80%
    22:00 +20°C° 0 mm 1 mps 691 mmHg 80%
    23:00 +19°C° 0 mm 1 mps 691 mmHg 80%

    5 June, Friday

    Time Temperature Precipitation Wind Pressure Humidity
    00:00 +19°C° 0 mm 1 mps 691 mmHg 80%
    01:00 +18°C° 0 mm 2 mps 691 mmHg 76%
    02:00 +18°C° 0 mm 2 mps 691 mmHg 72%
    03:00 +17°C° 0 mm 2 mps 691 mmHg 69%
    04:00 +19°C° 0 mm 1 mps 692 mmHg 68%
    05:00 +20°C° 0 mm 1 mps 692 mmHg 68%
    06:00 +20°C° 0 mm 1 mps 693 mmHg 67%
    07:00 +22°C° 0 mm 1 mps 693 mmHg 64%
    08:00 +24°C° 0 mm 1 mps 693 mmHg 60%
    09:00 +25°C° 0 mm 2 mps 693 mmHg 56%
    10:00 +26°C° 0.1 mm 2 mps 693 mmHg 55%
    11:00 +27°C° 0.1 mm 2 mps 693 mmHg 53%
    12:00 +28°C° 0.1 mm 3 mps 693 mmHg 51%
    13:00 +28°C° 0.3 mm 3 mps 693 mmHg 49%
    14:00 +28°C° 0.3 mm 3 mps 693 mmHg 47%
    15:00 +29°C° 0.3 mm 3 mps 692 mmHg 46%
    16:00 +28°C° 0.2 mm 3 mps 692 mmHg 50%
    17:00 +27°C° 0.2 mm 2 mps 692 mmHg 54%
    18:00 +26°C° 0.2 mm 2 mps 692 mmHg 58%
    19:00 +24°C° 0.1 mm 2 mps 693 mmHg 63%
    20:00 +21°C° 0.1 mm 2 mps 693 mmHg 68%
    21:00 +20°C° 0.1 mm 1 mps 693 mmHg 73%
    22:00 +20°C° 0.1 mm 1 mps 694 mmHg 73%
    23:00 +19°C° 0.1 mm 1 mps 694 mmHg 73%

    6 June, Saturday

    Time Temperature Precipitation Wind Pressure Humidity
    00:00 +19°C° 0.1 mm 1 mps 694 mmHg 73%
    01:00 +18°C° 0 mm 1 mps 694 mmHg 75%
    02:00 +18°C° 0 mm 1 mps 694 mmHg 76%
    03:00 +16°C° 0 mm 1 mps 694 mmHg 77%
    04:00 +18°C° 0.1 mm 1 mps 694 mmHg 76%
    05:00 +19°C° 0.1 mm 1 mps 695 mmHg 74%
    06:00 +20°C° 0.1 mm 1 mps 695 mmHg 73%
    07:00 +21°C° 0.3 mm 1 mps 695 mmHg 69%
    08:00 +21°C° 0.3 mm 2 mps 695 mmHg 64%
    09:00 +24°C° 0.3 mm 3 mps 695 mmHg 60%
    10:00 +24°C° 0.4 mm 3 mps 695 mmHg 59%
    11:00 +25°C° 0.4 mm 3 mps 695 mmHg 58%
    12:00 +26°C° 0.4 mm 3 mps 695 mmHg 56%
    13:00 +26°C° 0.5 mm 3 mps 694 mmHg 56%
    14:00 +26°C° 0.5 mm 3 mps 694 mmHg 55%
    15:00 +26°C° 0.5 mm 3 mps 694 mmHg 55%
    16:00 +26°C° 0.2 mm 2 mps 694 mmHg 58%
    17:00 +25°C° 0.2 mm 2 mps 694 mmHg 61%
    18:00 +25°C° 0.2 mm 1 mps 694 mmHg 64%
    19:00 +23°C° 0.4 mm 1 mps 694 mmHg 68%
    20:00 +20°C° 0.4 mm 2 mps 694 mmHg 72%
    21:00 +19°C° 0.4 mm 2 mps 694 mmHg 76%
    22:00 +18°C° 0.2 mm 2 mps 694 mmHg 77%
    23:00 +18°C° 0.2 mm 2 mps 694 mmHg 77%
    Show more